FW1519 Weather Reports


Display with metric or nautical units.
time (UTC)temp
F
wind
direction
speed
MPH
gust
MPH
rain 1hr
in
rain 24hr
in
rain mn
in
humidity
%
barometer
mb
20260506134901 36 331 8.0 15.0 0.00 0.00 0.00 61 1016.2
20260506133849 37 341 7.0 13.0 0.00 0.00 0.00 61 1016.1
20260506133343 37 315 8.0 15.0 0.00 0.00 0.00 62 1016.0
20260506132841 37 294 10.0 16.0 0.00 0.00 0.00 62 1016.0
20260506132342 37 307 8.0 16.0 0.00 0.00 0.00 60 1015.9
20260506131839 37 286 7.0 15.0 0.00 0.00 0.00 62 1015.7
20260506131340 37 314 7.0 15.0 0.00 0.00 0.00 62 1015.6
20260506130839 37 299 6.0 13.0 0.00 0.00 0.00 62 1015.6
20260506130336 36 288 6.0 15.0 0.00 0.00 0.00 63 1015.6
20260506125333 36 297 6.0 16.0 0.00 0.00 0.00 63 1015.4
20260506124834 36 314 7.0 14.0 0.00 0.00 0.00 64 1015.5
20260506124331 36 277 7.0 14.0 0.00 0.00 0.00 63 1015.4
20260506123830 36 296 7.0 12.0 0.00 0.00 0.00 64 1015.4
20260506123330 36 309 7.0 11.0 0.00 0.00 0.00 64 1015.3
20260506122829 36 323 6.0 15.0 0.00 0.00 0.00 64 1015.3
20260506122329 36 285 6.0 15.0 0.00 0.00 0.00 64 1015.3
20260506121829 36 267 5.0 11.0 0.00 0.00 0.00 64 1015.1
20260506121330 35 292 4.0 14.0 0.00 0.00 0.00 65 1015.1
20260506120830 35 306 5.0 14.0 0.00 0.00 0.00 65 1015.0
20260506120329 35 256 5.0 13.0 0.00 0.00 0.00 65 1014.9
20260506115830 35 311 5.0 12.0 0.00 0.00 0.00 65 1014.9
20260506115323 35 275 5.0 10.0 0.00 0.00 0.00 65 1014.8
20260506113308 35 253 3.0 7.0 0.00 0.00 0.00 66 1014.7
20260506112807 35 260 3.0 7.0 0.00 0.00 0.00 66 1014.7
20260506112306 35 271 3.0 7.0 0.00 0.00 0.00 66 1014.6
20260506111804 35 244 3.0 7.0 0.00 0.00 0.00 65 1014.6
20260506111305 35 273 3.0 8.0 0.00 0.00 0.00 65 1014.5
20260506110804 35 241 4.0 9.0 0.00 0.00 0.00 64 1014.5
20260506110304 35 265 3.0 9.0 0.00 0.00 0.00 64 1014.5
20260506105803 35 248 3.0 8.0 0.00 0.00 0.00 64 1014.4
20260506105305 35 280 4.0 8.0 0.00 0.00 0.00 64 1014.4
20260506104802 35 248 4.0 10.0 0.00 0.00 0.00 64 1014.4
20260506104302 35 286 4.0 11.0 0.00 0.00 0.00 64 1014.3
20260506103802 35 280 4.0 11.0 0.00 0.00 0.00 64 1014.2
20260506103302 35 292 4.0 10.0 0.00 0.00 0.00 64 1014.2
20260506102801 35 302 3.0 9.0 0.00 0.00 0.00 64 1014.1
20260506102305 35 318 3.0 7.0 0.00 0.00 0.00 64 1014.1
20260506100800 36 290 4.0 9.0 0.00 0.00 0.00 63 1014.2
20260506100253 36 274 3.0 9.0 0.00 0.00 0.00 63 1014.2
20260506095746 36 279 3.0 7.0 0.00 0.00 0.00 63 1014.2
20260506095241 36 271 3.0 8.0 0.00 0.00 0.00 62 1014.2
20260506094736 36 257 4.0 8.0 0.00 0.00 0.00 62 1014.1
20260506093732 36 284 3.0 8.0 0.00 0.00 0.00 62 1014.2
20260506093232 36 274 2.0 6.0 0.00 0.00 0.00 61 1014.2
20260506092731 36 273 2.0 7.0 0.00 0.00 0.00 61 1014.2
20260506092230 36 291 3.0 7.0 0.00 0.00 0.00 61 1014.0
20260506091730 36 295 3.0 7.0 0.00 0.00 0.00 62 1014.1
20260506091230 36 304 3.0 7.0 0.00 0.00 0.00 61 1014.0
20260506090730 36 283 3.0 7.0 0.00 0.00 0.00 62 1014.1
20260506085731 36 309 3.0 8.0 0.00 0.00 0.00 62 1014.0
20260506085230 36 279 3.0 8.0 0.00 0.00 0.00 62 1014.0
20260506084731 36 291 3.0 8.0 0.00 0.00 0.00 61 1014.0
20260506084231 36 298 3.0 8.0 0.00 0.00 0.00 61 1014.0
20260506082729 36 298 3.0 9.0 0.00 0.00 0.00 62 1013.9
20260506082232 36 302 3.0 9.0 0.00 0.00 0.00 62 1014.0
20260506081729 36 304 4.0 9.0 0.00 0.00 0.00 62 1013.9
20260506081226 36 298 6.0 14.0 0.00 0.00 0.00 62 1013.9
20260506080728 36 321 6.0 14.0 0.00 0.00 0.00 62 1013.8
20260506080227 36 336 6.0 11.0 0.00 0.00 0.00 63 1013.8
20260506073227 36 296 1.0 4.0 0.00 0.00 0.00 63 1013.8
20260506072726 36 292 2.0 4.0 0.00 0.00 0.00 63 1013.8
20260506072226 36 274 2.0 7.0 0.00 0.00 0.00 63 1013.8
20260506071726 37 292 2.0 7.0 0.00 0.00 0.00 63 1013.8
20260506071225 36 292 3.0 6.0 0.00 0.00 0.00 64 1013.8
20260506070725 36 319 2.0 6.0 0.00 0.00 0.00 64 1013.8
20260506070226 36 284 2.0 5.0 0.00 0.00 0.00 64 1013.8
20260506062219 35 301 4.0 8.0 0.00 0.00 0.00 64 1013.9
20260506061719 35 297 3.0 8.0 0.00 0.00 0.00 65 1013.9
20260506061219 35 278 1.0 7.0 0.00 0.00 0.00 65 1014.0
20260506060718 35 258 2.0 8.0 0.00 0.00 0.00 65 1014.0
20260506060219 35 304 2.0 8.0 0.00 0.00 0.00 65 1013.9
20260506051214 34 261 0.0 2.0 0.00 0.00 0.00 66 1013.7
20260506050714 34 261 1.0 2.0 0.00 0.00 0.00 65 1013.7
20260506050215 34 264 1.0 2.0 0.00 0.00 0.00 65 1013.7
20260506044709 35 287 0.0 1.0 0.00 0.00 0.00 63 1013.6
20260506044206 35 290 0.0 3.0 0.00 0.00 0.00 62 1013.6
20260506042704 36 285 1.0 4.0 0.00 0.00 0.00 62 1013.5
20260506041701 36 306 2.0 4.0 0.00 0.00 0.00 61 1013.5
20260506041202 36 323 2.0 4.0 0.00 0.00 0.00 60 1013.5
20260506040201 37 314 2.0 5.0 0.00 0.00 0.00 60 1013.5
20260506035702 37 300 2.0 5.0 0.00 0.00 0.00 60 1013.4
20260506035202 37 309 3.0 8.0 0.00 0.00 0.00 60 1013.5
20260506034203 37 322 3.0 8.0 0.00 0.00 0.00 58 1013.3
20260506033702 38 317 2.0 8.0 0.00 0.00 0.00 59 1013.3
20260506033203 38 325 3.0 8.0 0.00 0.00 0.00 59 1013.3
20260506032150 38 315 4.0 9.0 0.00 0.00 0.00 57 1013.3
20260506031138 38 313 4.0 10.0 0.00 0.00 0.00 56 1013.3
20260506030631 39 342 3.0 8.0 0.00 0.00 0.00 56 1013.3
20260506030126 39 303 2.0 8.0 0.00 0.00 0.00 56 1013.3
20260506024608 39 318 7.0 12.0 0.00 0.00 0.00 54 1013.1
20260506024109 40 293 6.0 12.0 0.00 0.00 0.00 53 1013.1
20260506023608 40 292 7.0 12.0 0.00 0.00 0.00 54 1013.0
20260506022108 40 319 7.0 14.0 0.00 0.00 0.00 52 1012.9
20260506021607 40 333 7.0 15.0 0.00 0.00 0.00 52 1012.8
20260506021107 41 314 7.0 15.0 0.00 0.00 0.00 52 1012.6
20260506020605 41 327 8.0 17.0 0.00 0.00 0.00 51 1012.6
20260506020105 41 302 8.0 17.0 0.00 0.00 0.00 51 1012.5
20260506015605 41 292 8.0 14.0 0.00 0.00 0.00 51 1012.5
20260506014603 41 294 7.0 15.0 0.00 0.00 0.00 52 1012.1
20260506014103 42 320 6.0 15.0 0.00 0.00 0.00 52 1012.0
20260506013603 42 0 6.0 14.0 0.00 0.00 0.00 52 1012.0
20260506013103 42 305 7.0 14.0 0.00 0.00 0.00 52 1012.0
20260506012602 42 316 7.0 13.0 0.00 0.00 0.00 51 1011.9
20260506012102 42 326 7.0 13.0 0.00 0.00 0.00 51 1011.9
20260506011603 42 351 5.0 13.0 0.00 0.00 0.00 51 1011.9
20260506011103 42 298 6.0 15.0 0.00 0.00 0.00 51 1011.9
20260506005101 43 314 10.0 19.0 0.00 0.00 0.00 50 1011.8
20260506004603 43 310 9.0 19.0 0.00 0.00 0.00 50 1011.7
20260506003602 43 323 9.0 17.0 0.00 0.00 0.00 50 1011.6
20260506003102 43 306 8.0 15.0 0.00 0.00 0.00 51 1011.6
20260506002601 43 280 9.0 16.0 0.00 0.00 0.00 50 1011.6
20260506002102 43 308 9.0 16.0 0.00 0.00 0.00 49 1011.5
20260506001602 44 323 8.0 16.0 0.00 0.00 0.00 49 1011.5
20260506001103 44 287 8.0 17.0 0.00 0.00 0.00 49 1011.4
20260506000603 44 313 10.0 18.0 0.00 0.00 0.00 49 1011.5
20260505235601 44 286 9.0 17.0 0.00 0.00 0.00 49 1011.3
20260505234603 44 251 10.0 18.0 0.00 0.00 0.00 48 1011.2
20260505234102 44 288 9.0 18.0 0.00 0.00 0.00 48 1011.2
20260505233602 44 274 9.0 15.0 0.00 0.00 0.00 48 1011.2
20260505233103 44 296 10.0 16.0 0.00 0.00 0.00 48 1011.1
20260505232601 44 289 12.0 22.0 0.00 0.00 0.00 48 1011.1
20260505232103 44 302 13.0 24.0 0.00 0.00 0.00 47 1011.1
20260505231602 45 251 10.0 24.0 0.00 0.00 0.00 47 1011.0
20260505231101 45 335 10.0 19.0 0.00 0.00 0.00 48 1010.9
20260505230603 45 286 9.0 18.0 0.00 0.00 0.00 47 1011.0
20260505225601 45 350 11.0 19.0 0.00 0.00 0.00 47 1011.0
20260505224102 46 331 12.0 21.0 0.00 0.00 0.00 47 1010.9
20260505223602 46 325 12.0 21.0 0.00 0.00 0.00 46 1010.9
20260505223101 45 304 11.0 20.0 0.00 0.00 0.00 47 1010.7
20260505222603 46 322 11.0 19.0 0.00 0.00 0.00 47 1010.7
20260505222057 46 295 10.0 19.0 0.00 0.00 0.00 46 1010.7
20260505221550 46 344 10.0 18.0 0.00 0.00 0.00 47 1010.7
20260505221051 47 0 11.0 18.0 0.00 0.00 0.00 46 1010.7
20260505220550 47 302 10.0 18.0 0.00 0.00 0.00 45 1010.8
20260505220052 47 271 9.0 20.0 0.00 0.00 0.00 47 1010.7
20260505215548 46 263 12.0 24.0 0.00 0.00 0.00 47 1010.7
20260505215047 46 299 11.0 24.0 0.00 0.00 0.00 46 1010.7
20260505214045 46 259 11.0 21.0 0.00 0.00 0.00 47 1010.7
20260505213546 46 342 10.0 21.0 0.00 0.00 0.00 46 1010.7
20260505213046 46 342 10.0 19.0 0.00 0.00 0.00 46 1010.7
20260505212545 46 256 12.0 22.0 0.00 0.00 0.00 46 1010.7
20260505212045 46 263 12.0 22.0 0.00 0.00 0.00 47 1010.7
20260505211545 46 301 12.0 22.0 0.00 0.00 0.00 46 1010.7
20260505211046 46 327 13.0 22.0 0.00 0.00 0.00 46 1010.6
20260505210546 46 284 11.0 25.0 0.00 0.00 0.00 45 1010.7
20260505210045 46 290 10.0 25.0 0.00 0.00 0.00 46 1010.7
20260505205549 46 318 10.0 20.0 0.00 0.00 0.00 46 1010.7
20260505205041 46 317 7.0 20.0 0.00 0.00 0.00 45 1010.6
20260505204543 46 301 9.0 24.0 0.00 0.00 0.00 46 1010.6
20260505204048 46 344 12.0 24.0 0.00 0.00 0.00 46 1010.7
20260505203545 46 283 11.0 19.0 0.00 0.00 0.00 46 1010.6
20260505202541 46 302 11.0 20.0 0.00 0.00 0.00 46 1010.7
20260505202041 46 280 11.0 20.0 0.00 0.00 0.00 46 1010.7
20260505201541 46 289 10.0 23.0 0.00 0.00 0.00 46 1010.7
20260505201044 46 225 12.0 23.0 0.00 0.00 0.00 46 1010.7
20260505200544 46 293 11.0 21.0 0.00 0.00 0.00 44 1010.6
20260505200042 47 276 9.0 19.0 0.00 0.00 0.00 44 1010.7
20260505194539 46 335 11.0 20.0 0.00 0.00 0.00 46 1010.7
20260505194039 46 279 10.0 20.0 0.00 0.00 0.00 45 1010.6
20260505193539 46 245 11.0 19.0 0.00 0.00 0.00 45 1010.5
20260505193039 46 255 10.0 18.0 0.00 0.00 0.00 46 1010.6
20260505192541 46 242 10.0 20.0 0.00 0.00 0.00 47 1010.7
20260505190540 45 317 10.0 19.0 0.00 0.00 0.00 48 1010.8
20260505185536 45 278 8.0 18.0 0.00 0.00 0.00 48 1011.0
20260505185035 45 300 10.0 20.0 0.00 0.00 0.00 48 1010.8
20260505184535 45 287 10.0 20.0 0.00 0.00 0.00 47 1010.9
20260505183537 44 295 11.0 22.0 0.00 0.00 0.00 49 1010.8
20260505183035 44 337 12.0 22.0 0.00 0.00 0.00 48 1010.8
20260505182037 44 244 11.0 22.0 0.00 0.00 0.00 47 1010.6
20260505181530 44 311 12.0 22.0 0.00 0.00 0.00 47 1010.7
20260505181031 44 258 10.0 19.0 0.00 0.00 0.00 47 1010.8
20260505180031 44 286 11.0 18.0 0.00 0.00 0.00 49 1010.7
20260505175031 44 225 11.0 21.0 0.00 0.00 0.00 48 1010.7
20260505174032 44 265 12.0 26.0 0.00 0.00 0.00 49 1010.7
20260505173531 44 290 11.0 26.0 0.00 0.00 0.00 47 1010.7
20260505172531 43 248 11.0 22.0 0.00 0.00 0.00 51 1010.9
20260505172031 43 291 11.0 20.0 0.00 0.00 0.00 49 1010.7
20260505171032 43 291 11.0 17.0 0.00 0.00 0.00 51 1010.7
20260505170532 43 286 11.0 18.0 0.00 0.00 0.00 50 1010.8
20260505165532 43 303 8.0 20.0 0.00 0.00 0.00 49 1010.8
20260505165030 43 282 9.0 20.0 0.00 0.00 0.00 51 1010.7
20260505164531 42 277 11.0 20.0 0.00 0.00 0.00 50 1010.7
20260505163529 42 252 10.0 23.0 0.00 0.00 0.00 51 1010.7
20260505163029 43 291 10.0 23.0 0.00 0.00 0.00 50 1010.7
20260505162530 43 302 10.0 20.0 0.00 0.00 0.00 50 1010.7
20260505161520 43 285 12.0 22.0 0.00 0.00 0.00 51 1010.7
20260505161016 42 290 13.0 22.0 0.00 0.00 0.00 52 1010.6
20260505160509 42 302 10.0 23.0 0.00 0.00 0.00 53 1010.6
20260505153007 41 278 9.0 20.0 0.00 0.00 0.00 57 1010.6
20260505152507 40 278 11.0 20.0 0.00 0.00 0.00 55 1010.7
20260505152007 41 302 8.0 19.0 0.00 0.00 0.00 55 1010.7
20260505151507 41 265 7.0 20.0 0.00 0.00 0.00 56 1010.7
20260505140438 37 300 8.0 15.0 0.00 0.00 0.00 58 1010.1